Broken Bow, NE

5:48 PM CST on February 08, 2016 (GMT -0600)
Broken Bow Municipal

Weather History for KBBW - December, 2013

Change the Weather History Date:

Sunday, December 8, 2013

  Actual Average Record
Temperature  
Mean Temperature 6 °F 26 °F  
Max Temperature 14 °F 38 °F 70 °F (1970)
Min Temperature -2 °F 14 °F -21 °F (1978)
Degree Days  
Heating Degree Days 59 39  
Month to date heating degree days 393 303  
Cooling Degree Days 0 0  
Month to date cooling degree days 0 0  
Year to date cooling degree days 814 768  
Moisture  
Dew Point 3 °F    
Average Humidity 75    
Maximum Humidity 88    
Minimum Humidity 62    
Precipitation  
Precipitation T in 0.02 in 1.00 in (1919)
Sea Level Pressure  
Sea Level Pressure 30.12 in    
Wind  
Wind Speed 8 mph (SSW)    
Max Wind Speed 17 mph    
Max Gust Speed 22 mph    
Visibility 7 miles    
Events Snow    
T = Trace of Precipitation, MM = Missing Value Source: NWS Daily Summary

Daily Weather History Graph

Daily Weather History Graph

Search for Another Location

Airport or City:

Trip Planner

Search our weather history database for the weather conditions in past years. The results will help you decide how hot, cold, wet, or windy it might be!

Date:

Astronomy

Dec. 08, 2013 Rise Set
Actual Time 7:52 AM CST 5:08 PM CST
Civil Twilight 7:21 AM CST 5:39 PM CST
Nautical Twilight 6:46 AM CST 6:14 PM CST
Astronomical Twilight 6:12 AM CST 6:48 PM CST
Moon 12:10 PM CST No Moon Set
Length of Visible Light 10h 18m
Length of Day
9h 16m
Waxing Crescent, 40% of the Moon is Illuminated
Dec 8
Waxing Crescent
Dec 9
First Quarter
Dec 17
Full
Dec 25
Last Quarter
Jan 1
New

Hourly Weather History & Observations

Time (CST) Temp. Windchill Dew Point Humidity Pressure Visibility Wind Dir Wind Speed Gust Speed Precip Events Conditions
12:53 AM 5.0 °F -11.6 °F 1.9 °F 87% 30.30 in 6.0 mi SE 12.7 mph 21.9 mph N/A   Overcast
1:53 AM 5.0 °F -12.3 °F 1.9 °F 87% 30.25 in 6.0 mi SE 13.8 mph 21.9 mph N/A   Overcast
2:53 AM 6.1 °F -9.5 °F 3.0 °F 87% 30.22 in 5.0 mi SE 11.5 mph 20.7 mph 0.00 in Snow Light Snow
3:53 AM 6.1 °F -6.8 °F 3.0 °F 87% 30.21 in 3.0 mi SE 8.1 mph - 0.00 in Snow Light Snow
4:42 AM 6.8 °F -5.9 °F 3.2 °F 85% 30.01 in 4.0 mi SE 8.1 mph - 0.00 in Snow Light Snow
4:53 AM 6.1 °F -7.8 °F 3.0 °F 87% 30.18 in 4.0 mi SE 9.2 mph - 0.00 in Snow Light Snow
5:53 AM 6.1 °F -2.8 °F 3.0 °F 87% 30.16 in 4.0 mi SE 4.6 mph - 0.00 in Snow Light Snow
6:53 AM 6.1 °F -5.6 °F 3.0 °F 87% 30.14 in 5.0 mi SE 6.9 mph - 0.00 in Snow Light Snow
7:53 AM 6.1 °F -6.8 °F 3.0 °F 87% 30.15 in 9.0 mi SSE 8.1 mph - 0.00 in   Overcast
8:53 AM 7.0 °F -4.5 °F 3.9 °F 87% 30.12 in 3.0 mi SE 6.9 mph - 0.00 in Snow Light Snow
9:12 AM 6.8 °F -3.5 °F 3.2 °F 85% 29.96 in 2.5 mi ESE 5.8 mph - 0.00 in Snow Light Snow
9:23 AM 6.8 °F -3.5 °F 3.2 °F 85% 29.96 in 3.0 mi SE 5.8 mph - 0.00 in Snow Light Snow
9:53 AM 8.1 °F -0.5 °F 3.9 °F 83% 30.12 in 5.0 mi SSE 4.6 mph - 0.00 in   Overcast
10:53 AM 9.0 °F 0.6 °F 5.0 °F 84% 30.12 in 5.0 mi SE 4.6 mph - N/A   Overcast
11:45 AM 10.4 °F - 6.8 °F 85% 29.95 in 2.5 mi Calm Calm - 0.00 in Snow Light Snow
11:53 AM 10.0 °F - 6.1 °F 84% 30.10 in 2.5 mi Calm Calm - 0.00 in Snow Light Snow
12:05 PM 10.4 °F - 6.8 °F 85% 29.94 in 3.0 mi Calm Calm - 0.00 in   Overcast
12:53 PM 10.9 °F 4.7 °F 6.1 °F 81% 30.09 in 6.0 mi West 3.5 mph - 0.00 in   Haze
1:23 PM 12.2 °F 4.3 °F 6.8 °F 79% 29.92 in 10.0 mi WNW 4.6 mph - N/A   Overcast
1:53 PM 12.0 °F 5.9 °F 7.0 °F 80% 30.06 in 10.0 mi West 3.5 mph - N/A   Overcast
2:53 PM 12.9 °F 3.8 °F 7.0 °F 77% 30.06 in 7.0 mi WNW 5.8 mph - 0.00 in   Overcast
3:53 PM 12.9 °F -0.2 °F 6.1 °F 74% 30.08 in 10.0 mi NW 10.4 mph - N/A   Mostly Cloudy
4:06 PM 12.2 °F -1.0 °F 6.8 °F 79% 29.93 in 10.0 mi NNW 10.4 mph - N/A   Mostly Cloudy
4:53 PM 12.9 °F 0.7 °F 5.0 °F 71% 30.11 in 10.0 mi NNW 9.2 mph - N/A   Scattered Clouds
5:53 PM 8.1 °F 1.4 °F 3.9 °F 83% 30.15 in 10.0 mi NW 3.5 mph - N/A   Mostly Cloudy
6:53 PM 6.1 °F -5.6 °F 1.0 °F 80% 30.19 in 10.0 mi NNW 6.9 mph - N/A   Partly Cloudy
7:53 PM 5.0 °F -14.7 °F -2.0 °F 73% 30.22 in 10.0 mi NNW 18.4 mph - N/A   Clear
8:53 PM 3.0 °F -15.5 °F -5.1 °F 69% 30.23 in 10.0 mi NW 15.0 mph - N/A   Clear
9:53 PM 3.0 °F -12.5 °F -7.1 °F 63% 30.27 in 10.0 mi NNW 10.4 mph - N/A   Clear
10:53 PM -2.0 °F -16.6 °F -8.0 °F 76% 30.30 in 10.0 mi NW 8.1 mph - N/A   Clear
11:53 PM 1.0 °F -14.0 °F -7.1 °F 69% 30.29 in 10.0 mi WNW 9.2 mph - N/A   Clear